TimeEDT,TemperatureF,Dew PointF,Humidity,Sea Level PressureIn,VisibilityMPH,Wind Direction,Wind SpeedMPH,Gust SpeedMPH,PrecipitationIn,Events,Conditions,WindDirDegrees,DateUTC
12:54 AM,28.9,26.1,89,30.32,10.0,Calm,Calm,-,N/A,,Clear,0,2013-04-26 04:54:00
1:54 AM,28.0,25.0,88,30.34,10.0,Calm,Calm,-,N/A,,Clear,0,2013-04-26 05:54:00
2:54 AM,28.0,25.0,88,30.34,10.0,Calm,Calm,-,N/A,,Clear,0,2013-04-26 06:54:00
3:38 AM,26.6,24.8,93,30.34,2.0,Calm,Calm,-,N/A,,Clear,0,2013-04-26 07:38:00
3:47 AM,26.6,24.8,93,30.34,10.0,Calm,Calm,-,N/A,,Clear,0,2013-04-26 07:47:00
3:51 AM,24.8,24.8,100,30.34,1.2,Calm,Calm,-,N/A,,Clear,0,2013-04-26 07:51:00
3:54 AM,25.0,24.1,96,30.36,0.8,Calm,Calm,-,N/A,,Clear,0,2013-04-26 07:54:00
4:03 AM,24.8,24.8,100,30.35,1.8,Calm,Calm,-,N/A,,Clear,0,2013-04-26 08:03:00
4:10 AM,26.6,24.8,93,30.35,1.8,Calm,Calm,-,N/A,,Partly Cloudy,0,2013-04-26 08:10:00
4:15 AM,24.8,24.8,100,30.35,4.0,Calm,Calm,-,N/A,,Clear,0,2013-04-26 08:15:00
4:27 AM,26.6,24.8,93,30.35,1.0,Calm,Calm,-,N/A,,Mist,0,2013-04-26 08:27:00
4:34 AM,24.8,24.8,100,30.36,0.8,Calm,Calm,-,N/A,,Mist,0,2013-04-26 08:34:00
4:36 AM,24.8,24.8,100,30.36,1.5,Calm,Calm,-,N/A,,Clear,0,2013-04-26 08:36:00
4:38 AM,24.8,24.8,100,30.36,4.0,Calm,Calm,-,N/A,,Clear,0,2013-04-26 08:38:00
4:54 AM,25.0,24.1,96,30.37,2.0,West,3.5,-,N/A,,Partly Cloudy,270,2013-04-26 08:54:00
4:57 AM,24.8,23.0,93,30.36,1.2,Calm,Calm,-,N/A,,Clear,0,2013-04-26 08:57:00
5:07 AM,24.8,23.0,93,30.36,2.0,Calm,Calm,-,N/A,,Clear,0,2013-04-26 09:07:00
5:14 AM,24.8,23.0,93,30.37,10.0,Calm,Calm,-,N/A,,Clear,0,2013-04-26 09:14:00
5:54 AM,25.0,21.9,88,30.40,10.0,Calm,Calm,-,N/A,,Clear,0,2013-04-26 09:54:00
6:00 AM,24.8,23.0,93,30.39,1.0,Calm,Calm,-,N/A,,Clear,0,2013-04-26 10:00:00
6:03 AM,24.8,23.0,93,30.39,0.2,Calm,Calm,-,N/A,Fog,Light Freezing Fog,0,2013-04-26 10:03:00
6:16 AM,24.8,24.8,100,30.40,1.0,Calm,Calm,-,N/A,,Mist,0,2013-04-26 10:16:00
6:26 AM,26.6,24.8,93,30.40,2.5,Calm,Calm,-,N/A,,Partly Cloudy,0,2013-04-26 10:26:00
6:33 AM,26.6,24.8,93,30.41,10.0,Calm,Calm,-,N/A,,Clear,0,2013-04-26 10:33:00
6:54 AM,28.9,28.0,96,30.43,10.0,Calm,Calm,-,N/A,,Clear,0,2013-04-26 10:54:00
7:54 AM,39.0,28.9,67,30.44,10.0,Calm,Calm,-,0.00,,Clear,0,2013-04-26 11:54:00
8:54 AM,46.9,26.1,44,30.45,10.0,Variable,3.5,-,0.00,,Clear,0,2013-04-26 12:54:00
9:54 AM,51.1,26.1,38,30.45,10.0,Calm,Calm,-,0.00,,Clear,0,2013-04-26 13:54:00
10:54 AM,54.0,23.0,30,30.45,10.0,NNE,5.8,-,N/A,,Clear,20,2013-04-26 14:54:00
11:54 AM,57.0,24.1,28,30.43,10.0,Variable,5.8,-,N/A,,Clear,0,2013-04-26 15:54:00
12:54 PM,57.9,25.0,28,30.42,10.0,Variable,6.9,-,N/A,,Mostly Cloudy,0,2013-04-26 16:54:00
1:54 PM,60.1,25.0,26,30.40,10.0,Variable,4.6,-,N/A,,Mostly Cloudy,0,2013-04-26 17:54:00
2:54 PM,57.0,24.1,28,30.38,10.0,Calm,Calm,-,N/A,,Scattered Clouds,0,2013-04-26 18:54:00
3:54 PM,57.9,25.0,28,30.38,10.0,Calm,Calm,-,N/A,,Overcast,0,2013-04-26 19:54:00
4:54 PM,57.0,26.1,30,30.38,10.0,Variable,3.5,-,N/A,,Overcast,0,2013-04-26 20:54:00
5:54 PM,57.0,27.0,32,30.39,10.0,SW,5.8,-,N/A,,Overcast,220,2013-04-26 21:54:00
6:54 PM,55.0,28.0,35,30.40,10.0,West,4.6,-,N/A,,Overcast,270,2013-04-26 22:54:00
7:54 PM,46.9,30.9,54,30.41,10.0,Calm,Calm,-,N/A,,Partly Cloudy,0,2013-04-26 23:54:00
8:54 PM,45.0,32.0,60,30.43,10.0,Calm,Calm,-,N/A,,Clear,0,2013-04-27 00:54:00
9:54 PM,37.9,32.0,79,30.43,10.0,Calm,Calm,-,N/A,,Clear,0,2013-04-27 01:54:00
10:54 PM,35.1,32.0,89,30.43,10.0,Calm,Calm,-,N/A,,Clear,0,2013-04-27 02:54:00
11:54 PM,36.0,32.0,86,30.43,10.0,WNW,3.5,-,N/A,,Overcast,290,2013-04-27 03:54:00